Flag for U.S.A. Weather past 2 weeks in Cincinnati, Ohio, U.S.A.

Now
31 °F

Clear.


Feels Like: 31 °F
Forecast: 33 / 66 °F
Wind: No wind

Location: Cincinnati Municipal Airport Lunken Field


UV Index: 5 (Moderate)

Visibility: 10 mi


Pressure: 30.32 "Hg

Humidity: 92%

Dew point: 29 °F

Location of CincinnatiLocation

Historic Weather in Cincinnati

°F

Cincinnati temperature yesterday

Maximum temperature yesterday: 50 °F (at 4:53 PM)
Minimum temperature yesterday: 24 °F (at 5:53 AM)
Average temperature yesterday: 37 °F

Past Weeks' High & Low Weather Summary

 TemperatureHumidityPressure
High80 °F (Apr 13, 3:53 PM)100% (Apr 3, 2:01 AM)30.45 "Hg (Apr 3, 2:01 AM)
Low24 °F (Apr 16, 5:53 AM)28% (Apr 13, 6:53 PM)29.35 "Hg (Apr 7, 6:53 PM)
Average52 °F68%29.96 "Hg
* Reported Apr 2 5:53 AM — Apr 17 5:53 AM, Cincinnati, Weather by CustomWeather, © 2014

Note: Actual official high and low records may vary slightly from our data, if they occured in-between our weather recording intervals... More about our weather records

Advertising

Historic Weather Conditions — Data for Previous 24 hours

 ConditionsComfort  
Time TempWeatherWind HumidityBarometerVisibility
5:53 AM
Apr 17
31 °FClear.No wind92%30.32 "Hg10 mi
4:53 AM31 °FClear.No wind85%30.31 "Hg10 mi
3:53 AM32 °FClear.No wind88%30.29 "Hg10 mi
2:53 AM33 °FClear.No wind85%30.29 "Hg10 mi
1:53 AM32 °FClear.No wind88%30.30 "Hg10 mi
12:53 AM35 °FClear.No wind85%30.31 "Hg10 mi
11:53 PM
Apr 16
37 °FClear.3 mph76%30.30 "Hg10 mi
10:53 PM37 °FClear.5 mph73%30.30 "Hg10 mi
9:53 PM40 °FClear.5 mph70%30.29 "Hg10 mi
8:53 PM45 °FSunny.5 mph38%30.28 "Hg10 mi
7:53 PM48 °FSunny.5 mph34%30.28 "Hg10 mi
6:53 PM50 °FSunny.8 mph33%30.29 "Hg10 mi
5:53 PM50 °FSunny.8 mph30%30.31 "Hg10 mi
4:53 PM50 °FSunny.9 mph32%30.33 "Hg10 mi
3:53 PM49 °FSunny.6 mph32%30.36 "Hg10 mi
2:53 PM47 °FSunny.N/A36%30.39 "Hg10 mi
1:53 PM44 °FSunny.No wind35%30.42 "Hg10 mi
12:53 PM43 °FSunny.8 mph38%30.43 "Hg10 mi
11:53 AM41 °FSunny.10 mph38%30.45 "Hg10 mi
10:53 AM39 °FSunny.12 mph36%30.45 "Hg10 mi
9:53 AM36 °FSunny.7 mph42%30.45 "Hg10 mi
8:53 AM31 °FSunny.3 mph76%30.45 "Hg10 mi
7:53 AM26 °FClear.3 mph92%30.44 "Hg10 mi
6:53 AM24 °FClear.No wind96%30.43 "Hg10 mi
Weather by CustomWeather, © 2014

See weather overview